SYN001 MMGL-MMMX

Flight info

Callsign SYN001
Flight time 0h 53m
Altitude 35000
Route EMIRI1B EMIRI UT119 ESPOS ESPOS3A
Aircraft BCS3/M-SBDE2E3GIRWXY/LB1

Departure

Time 2026-05-06 02:49
Airport Guadalajara International Airport (MMGL)

Arrival

Time 2026-05-06 03:42
Airport Mexico City Benito Juárez International Airport (MMMX)
Time Latitude Longitude Altitude Speed Heading
2026-05-06 02:20 20.52506 -103.30344 5016 ft 0 kts 18°
2026-05-06 02:32 20.52505 -103.30345 5016 ft 2 kts 18°
2026-05-06 02:33 20.52491 -103.30350 5016 ft 3 kts 18°
2026-05-06 02:33 20.52479 -103.30354 5017 ft 3 kts 31°
2026-05-06 02:33 20.52460 -103.30380 5015 ft 0 kts 84°
2026-05-06 02:38 20.52460 -103.30371 5016 ft 3 kts 95°
2026-05-06 02:38 20.52457 -103.30364 5016 ft 0 kts 109°
2026-05-06 02:40 20.52455 -103.30357 5016 ft 3 kts 109°
2026-05-06 02:40 20.52426 -103.30269 5018 ft 16 kts 109°
2026-05-06 02:40 20.52377 -103.30221 5015 ft 9 kts 187°
2026-05-06 02:41 20.52337 -103.30234 5019 ft 9 kts 198°
2026-05-06 02:41 20.52278 -103.30254 5019 ft 11 kts 198°
2026-05-06 02:41 20.52197 -103.30261 5020 ft 12 kts 145°
2026-05-06 02:41 20.52158 -103.30185 5018 ft 12 kts 111°
2026-05-06 02:42 20.52129 -103.30104 5020 ft 12 kts 111°
2026-05-06 02:42 20.52100 -103.30020 5020 ft 12 kts 110°
2026-05-06 02:42 20.52073 -103.29934 5019 ft 12 kts 100°
2026-05-06 02:42 20.52040 -103.29854 5020 ft 12 kts 127°
2026-05-06 02:43 20.51990 -103.29785 5020 ft 12 kts 127°
2026-05-06 02:43 20.51940 -103.29714 5020 ft 12 kts 127°
2026-05-06 02:43 20.51887 -103.29638 5019 ft 14 kts 126°
2026-05-06 02:43 20.51814 -103.29533 5020 ft 20 kts 123°
2026-05-06 02:44 20.51733 -103.29409 5019 ft 20 kts 128°
2026-05-06 02:44 20.51648 -103.29288 5019 ft 20 kts 126°
2026-05-06 02:44 20.51587 -103.29216 5019 ft 12 kts 156°
2026-05-06 02:44 20.51510 -103.29229 5017 ft 6 kts 203°
2026-05-06 02:45 20.51499 -103.29234 5018 ft 0 kts 205°
2026-05-06 02:45 20.51491 -103.29238 5018 ft 3 kts 205°
2026-05-06 02:46 20.51439 -103.29268 5017 ft 12 kts 219°
2026-05-06 02:46 20.51421 -103.29316 5017 ft 6 kts 271°
2026-05-06 02:46 20.51427 -103.29332 5017 ft 0 kts 298°
2026-05-06 02:48 20.51428 -103.29334 5017 ft 1 kts 298°
2026-05-06 02:48 20.51473 -103.29433 5018 ft 39 kts 295°
2026-05-06 02:48 20.51654 -103.29858 5020 ft 85 kts 294°
2026-05-06 02:48 20.51954 -103.30573 5020 ft 125 kts 294°
2026-05-06 02:49 20.52356 -103.31526 5111 ft 149 kts 293°
2026-05-06 02:49 20.52795 -103.32523 5629 ft 155 kts 295°
2026-05-06 02:49 20.53242 -103.33582 6020 ft 161 kts 294°
2026-05-06 02:49 20.53686 -103.34646 6566 ft 155 kts 294°
2026-05-06 02:50 20.54134 -103.35722 6992 ft 157 kts 294°
2026-05-06 02:50 20.54585 -103.36803 7382 ft 162 kts 294°
2026-05-06 02:50 20.55063 -103.37945 7620 ft 175 kts 294°
2026-05-06 02:50 20.55580 -103.39181 7833 ft 190 kts 294°
2026-05-06 02:51 20.56142 -103.40522 8012 ft 206 kts 293°
2026-05-06 02:51 20.56748 -103.41969 8201 ft 219 kts 293°
2026-05-06 02:51 20.57371 -103.43456 8600 ft 221 kts 293°
2026-05-06 02:51 20.58020 -103.45001 8837 ft 238 kts 292°
2026-05-06 02:52 20.58704 -103.46636 9341 ft 245 kts 292°
2026-05-06 02:52 20.59129 -103.48433 9791 ft 261 kts 269°
2026-05-06 02:52 20.58684 -103.50342 10187 ft 277 kts 243°
2026-05-06 02:52 20.57394 -103.51933 10585 ft 294 kts 217°
2026-05-06 02:53 20.55483 -103.52836 10978 ft 310 kts 192°
2026-05-06 02:53 20.53283 -103.52850 11409 ft 323 kts 173°
2026-05-06 02:53 20.51034 -103.52681 12051 ft 324 kts 182°
2026-05-06 02:53 20.48794 -103.53010 12709 ft 326 kts 193°
2026-05-06 02:54 20.46602 -103.53719 13294 ft 332 kts 199°
2026-05-06 02:54 20.44462 -103.54647 13894 ft 335 kts 202°
2026-05-06 02:54 20.42365 -103.55670 14478 ft 336 kts 201°
2026-05-06 02:54 20.40076 -103.56163 15042 ft 337 kts 180°
2026-05-06 02:55 20.37764 -103.55697 15566 ft 342 kts 159°
2026-05-06 02:55 20.35767 -103.54318 16189 ft 347 kts 138°
2026-05-06 02:55 20.34274 -103.52268 16726 ft 354 kts 124°
2026-05-06 02:55 20.33020 -103.49987 17296 ft 358 kts 121°
2026-05-06 02:56 20.31841 -103.47678 17852 ft 361 kts 121°
2026-05-06 02:56 20.30660 -103.45303 18409 ft 365 kts 120°
2026-05-06 02:56 20.29475 -103.42908 18970 ft 366 kts 121°
2026-05-06 02:56 20.28282 -103.40494 19510 ft 368 kts 121°
2026-05-06 02:57 20.27086 -103.38073 20055 ft 370 kts 121°
2026-05-06 02:57 20.25883 -103.35636 20594 ft 372 kts 121°
2026-05-06 02:57 20.24673 -103.33184 21135 ft 374 kts 121°
2026-05-06 02:57 20.23459 -103.30725 21675 ft 376 kts 121°
2026-05-06 02:58 20.22255 -103.28285 22201 ft 378 kts 121°
2026-05-06 02:58 20.21024 -103.25792 22696 ft 382 kts 121°
2026-05-06 02:58 20.19773 -103.23261 22854 ft 389 kts 121°
2026-05-06 02:58 20.18518 -103.20719 22847 ft 383 kts 121°
2026-05-06 02:59 20.17291 -103.18232 22836 ft 377 kts 121°
2026-05-06 02:59 20.16066 -103.15752 22889 ft 380 kts 121°
2026-05-06 02:59 20.14830 -103.13255 22936 ft 383 kts 121°
2026-05-06 02:59 20.13593 -103.10754 22942 ft 380 kts 121°
2026-05-06 03:00 20.12191 -103.08406 22942 ft 373 kts 135°
2026-05-06 03:00 20.10287 -103.06557 22953 ft 371 kts 143°
2026-05-06 03:00 20.08235 -103.04869 22951 ft 372 kts 145°
2026-05-06 03:00 20.06192 -103.03257 22948 ft 370 kts 146°
2026-05-06 03:01 20.04116 -103.01634 22947 ft 370 kts 146°
2026-05-06 03:01 20.02046 -103.00018 23098 ft 373 kts 146°
2026-05-06 03:01 19.99944 -102.98378 23682 ft 373 kts 146°
2026-05-06 03:01 19.97842 -102.96740 24074 ft 377 kts 146°
2026-05-06 03:02 19.95836 -102.94908 24448 ft 385 kts 133°
2026-05-06 03:02 19.94399 -102.92470 24833 ft 395 kts 119°
2026-05-06 03:02 19.93272 -102.89787 25233 ft 400 kts 116°
2026-05-06 03:02 19.92205 -102.87041 25605 ft 404 kts 115°
2026-05-06 03:03 19.91143 -102.84266 25987 ft 408 kts 115°
2026-05-06 03:03 19.90071 -102.81458 26377 ft 411 kts 115°
2026-05-06 03:03 19.88994 -102.78635 26772 ft 413 kts 115°
2026-05-06 03:03 19.87901 -102.75772 27080 ft 418 kts 115°
2026-05-06 03:04 19.86821 -102.72940 27386 ft 422 kts 115°
2026-05-06 03:04 19.85715 -102.70041 27754 ft 425 kts 115°
2026-05-06 03:04 19.84603 -102.67123 28106 ft 428 kts 115°
2026-05-06 03:04 19.83478 -102.64173 28438 ft 431 kts 115°
2026-05-06 03:05 19.82345 -102.61207 28772 ft 434 kts 115°
2026-05-06 03:05 19.81205 -102.58223 29104 ft 437 kts 115°
2026-05-06 03:05 19.80058 -102.55220 29436 ft 440 kts 115°
2026-05-06 03:05 19.78913 -102.52227 29723 ft 443 kts 115°
2026-05-06 03:06 19.77749 -102.49187 30023 ft 446 kts 115°
2026-05-06 03:06 19.76577 -102.46127 30273 ft 449 kts 115°
2026-05-06 03:06 19.75395 -102.43043 30542 ft 451 kts 115°
2026-05-06 03:06 19.74211 -102.39956 30791 ft 453 kts 115°
2026-05-06 03:07 19.73017 -102.36842 31017 ft 455 kts 115°
2026-05-06 03:07 19.71821 -102.33728 31269 ft 457 kts 115°
2026-05-06 03:07 19.70616 -102.30590 31496 ft 459 kts 115°
2026-05-06 03:07 19.69403 -102.27435 31703 ft 461 kts 114°
2026-05-06 03:08 19.68204 -102.24320 31897 ft 463 kts 114°
2026-05-06 03:08 19.66987 -102.21157 32091 ft 465 kts 114°
2026-05-06 03:08 19.65760 -102.17971 32292 ft 466 kts 114°
2026-05-06 03:08 19.64530 -102.14780 32485 ft 468 kts 114°
2026-05-06 03:09 19.63297 -102.11582 32644 ft 470 kts 114°
2026-05-06 03:09 19.62074 -102.08411 32713 ft 455 kts 114°
2026-05-06 03:09 19.60882 -102.05321 32748 ft 454 kts 115°
2026-05-06 03:10 19.58448 -101.99027 32803 ft 467 kts 114°
2026-05-06 03:10 19.55980 -101.92649 32992 ft 473 kts 114°
2026-05-06 03:10 19.54728 -101.89416 33127 ft 475 kts 114°
2026-05-06 03:11 19.53472 -101.86173 33296 ft 476 kts 114°
2026-05-06 03:11 19.52211 -101.82922 33454 ft 477 kts 114°
2026-05-06 03:11 19.50953 -101.79680 33699 ft 476 kts 114°
2026-05-06 03:11 19.49692 -101.76430 33877 ft 476 kts 114°
2026-05-06 03:12 19.48431 -101.73183 34058 ft 476 kts 114°
2026-05-06 03:12 19.47169 -101.69936 34254 ft 475 kts 114°
2026-05-06 03:12 19.45910 -101.66700 34479 ft 474 kts 114°
2026-05-06 03:12 19.44653 -101.63468 34650 ft 473 kts 114°
2026-05-06 03:13 19.43399 -101.60247 34846 ft 473 kts 114°
2026-05-06 03:13 19.42145 -101.57031 34966 ft 474 kts 114°
2026-05-06 03:13 19.40883 -101.53794 34996 ft 477 kts 114°
2026-05-06 03:14 19.38347 -101.47295 34976 ft 472 kts 114°
2026-05-06 03:14 19.35881 -101.40981 34968 ft 466 kts 114°
2026-05-06 03:15 19.33374 -101.34575 34956 ft 475 kts 114°
2026-05-06 03:15 19.30834 -101.28089 34941 ft 473 kts 114°
2026-05-06 03:16 19.28341 -101.21728 34925 ft 466 kts 114°
2026-05-06 03:16 19.25826 -101.15323 34912 ft 475 kts 114°
2026-05-06 03:17 19.23288 -101.08866 34896 ft 471 kts 114°
2026-05-06 03:17 19.20781 -101.02491 34884 ft 469 kts 114°
2026-05-06 03:18 19.18270 -100.96121 34874 ft 475 kts 114°
2026-05-06 03:18 19.15738 -100.89698 34858 ft 469 kts 114°
2026-05-06 03:19 19.13221 -100.83325 34853 ft 471 kts 114°
2026-05-06 03:19 19.10684 -100.76908 34844 ft 473 kts 114°
2026-05-06 03:20 19.07014 -100.67636 34839 ft 469 kts 114°
2026-05-06 03:20 19.04476 -100.61237 34844 ft 473 kts 114°
2026-05-06 03:21 19.01944 -100.54856 34848 ft 468 kts 114°
2026-05-06 03:21 18.99421 -100.48506 34859 ft 471 kts 114°
2026-05-06 03:22 18.96893 -100.42155 34865 ft 470 kts 114°
2026-05-06 03:22 18.94370 -100.35821 34881 ft 468 kts 114°
2026-05-06 03:23 18.91828 -100.29448 34895 ft 472 kts 114°
2026-05-06 03:23 18.89288 -100.23085 34908 ft 467 kts 114°
2026-05-06 03:24 18.86754 -100.16750 34925 ft 470 kts 114°
2026-05-06 03:24 18.84198 -100.10370 34554 ft 478 kts 114°
2026-05-06 03:25 18.82887 -100.07102 33801 ft 486 kts 115°
2026-05-06 03:25 18.81579 -100.03842 33025 ft 487 kts 114°
2026-05-06 03:25 18.80264 -100.00563 32365 ft 484 kts 115°
2026-05-06 03:25 18.78958 -99.97310 31748 ft 479 kts 115°
2026-05-06 03:26 18.78085 -99.95136 31342 ft 476 kts 115°
2026-05-06 03:26 18.76379 -99.90890 30525 ft 469 kts 115°
2026-05-06 03:26 18.75118 -99.87741 29904 ft 462 kts 114°
2026-05-06 03:26 18.74510 -99.85588 29316 ft 462 kts 103°
2026-05-06 03:27 18.74360 -99.82227 28632 ft 458 kts 86°
2026-05-06 03:27 18.75069 -99.78995 28074 ft 449 kts 73°
2026-05-06 03:27 18.76144 -99.75932 27519 ft 440 kts 70°
2026-05-06 03:27 18.77305 -99.72974 26971 ft 430 kts 69°
2026-05-06 03:28 18.78484 -99.70101 26431 ft 422 kts 68°
2026-05-06 03:28 18.79668 -99.67284 25903 ft 417 kts 68°
2026-05-06 03:28 18.80836 -99.64512 25579 ft 409 kts 68°
2026-05-06 03:28 18.81639 -99.61659 25529 ft 407 kts 82°
2026-05-06 03:29 18.82536 -99.58787 25451 ft 420 kts 66°
2026-05-06 03:29 18.83820 -99.55950 24399 ft 436 kts 66°
2026-05-06 03:29 18.85155 -99.53030 23441 ft 443 kts 66°
2026-05-06 03:29 18.86474 -99.50146 22646 ft 441 kts 65°
2026-05-06 03:30 18.87750 -99.47354 22047 ft 434 kts 65°
2026-05-06 03:30 18.89048 -99.44513 21499 ft 425 kts 65°
2026-05-06 03:30 18.90319 -99.41728 20961 ft 416 kts 65°
2026-05-06 03:30 18.91562 -99.38997 20431 ft 409 kts 65°
2026-05-06 03:31 18.92760 -99.36299 19909 ft 402 kts 66°
2026-05-06 03:31 18.93892 -99.33625 19395 ft 395 kts 67°
2026-05-06 03:31 18.94971 -99.31065 18877 ft 365 kts 67°
2026-05-06 03:31 18.95991 -99.28640 18441 ft 367 kts 67°
2026-05-06 03:32 18.97219 -99.26267 18058 ft 366 kts 55°
2026-05-06 03:32 18.98762 -99.24240 17959 ft 351 kts 51°
2026-05-06 03:32 19.00318 -99.22333 17966 ft 334 kts 50°
2026-05-06 03:32 19.01813 -99.20525 17976 ft 319 kts 50°
2026-05-06 03:33 19.03212 -99.18835 17978 ft 306 kts 50°
2026-05-06 03:33 19.04593 -99.17166 17986 ft 298 kts 50°
2026-05-06 03:33 19.05961 -99.15510 18003 ft 300 kts 50°
2026-05-06 03:33 19.07348 -99.13832 17972 ft 303 kts 50°
2026-05-06 03:34 19.08745 -99.12141 17552 ft 307 kts 50°
2026-05-06 03:34 19.10201 -99.10378 16385 ft 326 kts 50°
2026-05-06 03:34 19.11698 -99.08566 15610 ft 326 kts 50°
2026-05-06 03:34 19.13173 -99.06784 15099 ft 316 kts 50°
2026-05-06 03:35 19.14608 -99.05106 14543 ft 309 kts 43°
2026-05-06 03:35 19.16486 -99.03957 13740 ft 316 kts 18°
2026-05-06 03:35 19.18641 -99.03757 13303 ft 308 kts 353°
2026-05-06 03:35 19.20603 -99.04502 13046 ft 295 kts 328°
2026-05-06 03:36 19.22216 -99.05779 12776 ft 283 kts 321°
2026-05-06 03:36 19.23677 -99.07127 12500 ft 274 kts 319°
2026-05-06 03:36 19.24946 -99.08592 12211 ft 267 kts 309°
2026-05-06 03:36 19.26073 -99.10122 11932 ft 260 kts 308°
2026-05-06 03:37 19.27156 -99.11623 11631 ft 253 kts 308°
2026-05-06 03:37 19.28206 -99.13079 11341 ft 243 kts 308°
2026-05-06 03:37 19.29210 -99.14472 11073 ft 233 kts 308°
2026-05-06 03:37 19.30170 -99.15810 10820 ft 224 kts 308°
2026-05-06 03:38 19.31096 -99.17100 10568 ft 216 kts 308°
2026-05-06 03:38 19.32032 -99.18317 10329 ft 212 kts 317°
2026-05-06 03:38 19.33264 -99.19121 10101 ft 207 kts 341°
2026-05-06 03:38 19.34661 -99.19359 9845 ft 202 kts
2026-05-06 03:39 19.35996 -99.19050 9607 ft 199 kts 24°
2026-05-06 03:39 19.37125 -99.18258 9437 ft 192 kts 45°
2026-05-06 03:39 19.37897 -99.17166 9276 ft 180 kts 59°
2026-05-06 03:39 19.38519 -99.16052 9097 ft 172 kts 60°
2026-05-06 03:40 19.39114 -99.14983 8955 ft 165 kts 59°
2026-05-06 03:40 19.39705 -99.13929 8667 ft 166 kts 59°
2026-05-06 03:40 19.40288 -99.12890 8373 ft 160 kts 59°
2026-05-06 03:40 19.40840 -99.11901 8225 ft 153 kts 59°
2026-05-06 03:41 19.41390 -99.10921 8070 ft 157 kts 58°
2026-05-06 03:41 19.41939 -99.09941 7806 ft 159 kts 58°
2026-05-06 03:41 19.42478 -99.08955 7498 ft 155 kts 57°
2026-05-06 03:41 19.43041 -99.07971 7311 ft 151 kts 58°
2026-05-06 03:42 19.43493 -99.07166 7304 ft 96 kts 57°
2026-05-06 03:42 19.43751 -99.06717 7305 ft 47 kts 59°
2026-05-06 03:42 19.43836 -99.06569 7305 ft 9 kts 52°
2026-05-06 03:42 19.43893 -99.06517 7305 ft 15 kts 33°
2026-05-06 03:43 19.43961 -99.06547 7306 ft 10 kts 284°
2026-05-06 03:43 19.43962 -99.06619 7307 ft 10 kts 270°
2026-05-06 03:43 19.43962 -99.06690 7308 ft 9 kts 270°
2026-05-06 03:43 19.43961 -99.06759 7308 ft 9 kts 270°
2026-05-06 03:44 19.43988 -99.06816 7309 ft 9 kts 320°
2026-05-06 03:44 19.44044 -99.06850 7308 ft 10 kts 329°
2026-05-06 03:44 19.44061 -99.06862 7308 ft 0 kts 328°